This demonstration page uses our WeatherBlox Daily Observations layout. Learn more.

Left ArrowRight Arrow

Hourly Observations for April 29, 2021

Temp ( °F °C ) Dew Point ( °F °C ) Humidity (%) Winds ( mph kmh ) Pressure ( in mb ) Visibility ( mi km ) Precip ( " mm )
12:53 am 00:53 Clear 60 15.6 44 6.7 56 56 N 6 9 30.13 1020 10 16 0.00 0.00
1:53 am 01:53 Clear 57 13.9 44 6.7 62 62 Calm 30.14 1021 10 16 0.00 0.00
2:53 am 02:53 Clear 54 12.2 43 6.1 67 67 Calm 30.14 1021 10 16 0.00 0.00
3:53 am 03:53 Clear 53 11.7 44 6.7 72 72 Calm 30.14 1021 10 16 0.00 0.00
4:53 am 04:53 Clear 52 11.1 44 6.7 75 75 Calm 30.14 1021 10 16 0.00 0.00
5:53 am 05:53 Clear 51 10.6 43 6.1 74 74 NNE 3 6 30.14 1021 10 16 0.00 0.00
6:53 am 06:53 Sunny 52 11.1 45 7.2 77 77 Calm 30.15 1021 10 16 0.00 0.00
7:53 am 07:53 Sunny 60 15.6 47 8.3 62 62 Calm 30.16 1021 10 16 0.00 0.00
8:53 am 08:53 Sunny 64 17.8 46 7.8 52 52 Calm 30.16 1021 10 16 0.00 0.00
9:53 am 09:53 Sunny 71 21.7 46 7.8 41 41 Calm 30.17 1022 10 16 0.00 0.00
10:53 am 10:53 Sunny 75 23.9 46 7.8 36 36 VRB 3 6 30.16 1021 10 16 0.00 0.00
11:53 am 11:53 Sunny 79 26.1 45 7.2 30 30 S 6 9 30.15 1021 10 16 0.00 0.00
12:53 pm 12:53 Sunny 82 27.8 44 6.7 26 26 VRB 5 7 30.14 1021 10 16 0.00 0.00
1:53 pm 13:53 Sunny 84 28.9 41 5 22 22 VRB 3 6 30.12 1020 10 16 0.00 0.00
2:53 pm 14:53 Sunny 87 30.6 45 7.2 23 23 SSE 10 17 30.11 1020 10 16 0.00 0.00
3:53 pm 15:53 Sunny 87 30.6 41 5 20 20 SSE 9 15 30.09 1019 10 16 0.00 0.00
4:53 pm 16:53 Sunny 88 31.1 42 5.6 20 20 SSE 8 13 30.08 1019 10 16 0.00 0.00
5:53 pm 17:53 Sunny 87 30.6 42 5.6 21 21 SSE 10 17 30.07 1018 10 16 0.00 0.00
6:53 pm 18:53 Sunny 84 28.9 45 7.2 25 25 SSE 8 13 30.08 1019 10 16 0.00 0.00
7:53 pm 19:53 Sunny 77 25 46 7.8 33 33 SSE 8 13 30.08 1019 10 16 0.00 0.00
8:53 pm 20:53 Clear 75 23.9 44 6.7 33 33 Calm 30.11 1020 10 16 0.00 0.00
9:53 pm 21:53 Clear 73 22.8 45 7.2 37 37 N 6 9 30.11 1020 10 16 0.00 0.00
10:53 pm 22:53 Clear 68 20 49 9.4 51 51 N 5 7 30.12 1020 10 16 0.00 0.00
11:53 pm 23:53 Clear 65 18.3 48 8.9 54 54 Calm 30.12 1020 10 16 0.00 0.00

Powered by AerisWeather